Location: Munkebjergskolens Observatorium
(55.3864°N, 10.3987°E)
Time: 22:36:36
(UTC+01:00)

Envisat - Pass Details

Date: 03 December 2022
Orbit: 763 x 765 km, 98.2° (Epoch: 01 February)

Event Time Altitude Azimuth Distance (km) Brightness Sun altitude
Rises 16:39:54 0° 203° (SSW) 3,223 7.2 -6.5°
Reaches altitude 10° 16:42:38 10° 217° (SW) 2,302 6.8 -6.8°
Maximum altitude 16:46:40 24° 270° (W) 1,569 5.5 -7.3°
Drops below altitude 10° 16:50:45 10° 323° (NW) 2,317 5.6 -7.8°
Sets 16:53:31 0° 338° (NNW) 3,248 6.2 -8.2°
